Keyser, WV

3:27 AM EST on February 09, 2016 (GMT -0500)
Canaan Valley Institute | | Change Station
CLOSE
Current Station
Personal Weather Station
Location: Davis, WV
Elevation: 3182 ft
Nearby Weather Stations
Active Advisory: Winter Weather Advisory

Elev 3182 ft 39.15 °N, 79.43 °W | Updated 11 minutes ago

Snow
Snow
25.5 °F
Feels Like 26 °F
N
0.0
Wind Variable Wind from NW
Gusts 4.0 mph

Today
High -- | Low -- °F
--% Chance of Precip.
Yesterday
High -- | Low -- °F
Precip. -- in
Pressure 29.46 in
Visibility 1.8 miles
Clouds Scattered Clouds 200 ft
Scattered Clouds 700 ft
Mostly Cloudy 1200 ft
Windchill 26 °F
Dew Point 24 °F
Humidity 95%
Rainfall 0.00 in
Snow Depth Not available.
7:15 AM 5:46 PM
New Moon, 1% visible
METAR K2G4 090810Z AUTO 00000KT 1 3/4SM BR SCT002 SCT007 BKN012 M03/M03 A2946 RMK AO1
Pressure 29.46 in
Visibility 1.8 miles
Clouds Scattered Clouds 200 ft
Scattered Clouds 700 ft
Mostly Cloudy 1200 ft
Windchill 26 °F
Dew Point 24 °F
Humidity 95%
Rainfall 0.00 in
Snow Depth Not available.
7:15 AM 5:46 PM
New Moon, 1% visible
METAR K2G4 090810Z AUTO 00000KT 1 3/4SM BR SCT002 SCT007 BKN012 M03/M03 A2946 RMK AO1

10-Day Weather Forecast

Almanac

Astronomy

Feb. 09, 2016 Rise Set
Actual Time
Civil Twilight
Nautical Twilight
Astronomical Twilight
Moon
Length of Visible Light
Length of Day
Tomorrow will be .
, % of the Moon is Illuminated

Today's Extremes

State Highs State Lows

Community

WunderPhotos

Upload Photos

1,891,571 photos uploaded!

WunderBlog® & News

Nearby

Air Quality

  Air Quality AQ Index Pollutant
Not available.

Snow Depth

Station Depth Elevation

Earthquake Activity

City Distance Mag. Time & Date
Minimum magnitude displayed is 2.5.

Coastal Water Temperatures

Place Temperature

Stations

Nearby Weather Stations

Station Location Temp. Windchill Dew Point Humidity Wind Precip. Elev Updated Type
                   

Watches & Warnings

Winter Weather Advisory
Issued: 2:44 AM EST Feb. 9, 2016 – National Weather Service

... Winter Weather Advisory remains in effect until 6 PM EST
Wednesday...

* precipitation type... snow.

* Accumulations... snow accumulation of 4 to 8 inches.

* Timing... snow will continue through Wednesday and may become
heavy at times. Periods of snow will continue into Wednesday
night and Thursday.

* Impacts... snow covered roads and travel disruptions.

* Winds... west 10 to 20 mph with gusts up to 30 mph.

* Temperatures... in the lower 20s.

Precautionary/preparedness actions...

A Winter Weather Advisory for snow means that periods of snow
will cause primarily travel difficulties. Be prepared for snow
covered roads and limited visibilities... and use caution while
driving.